Regional Weather Roundup
Issued by NWS

Home | Current Version | Previous Version | Graphics & Text | Print | Product List | Glossary On
Versions: 1 2 3 4 5 6 7 8 9 10 11 12 13 14 15 16 17 18 19 20 21 22 23 24 25 26 27 28 29 30 31 32 33 34 35 36 37 38 39 40 41 42 43 44 45 46 47 48 49 50
000
ASUS43 KBIS 222002
RWRND

NORTH DAKOTA REGIONAL WEATHER ROUNDUP
NATIONAL WEATHER SERVICE BISMARCK ND
300 PM CDT FRI JUL 22 2016

NOTE: "FAIR" INDICATES FEW OR NO CLOUDS BELOW 12,000 FEET WITH NO
SIGNIFICANT WEATHER AND/OR OBSTRUCTIONS TO VISIBILITY.


NDZ001>003-009>011-017-222100-
NORTHWEST NORTH DAKOTA

CITY           SKY/WX    TMP DP  RH WIND       PRES   REMARKS
WILLISTON      MOSUNNY   91  54  28 SE13      29.99F
MINOT          MOSUNNY   88  60  38 E10       30.03F
MINOT AFB      CLOUDY    82  59  45 E12       30.01F
$$

NDZ018>021-031>035-040>046-222100-
SOUTHWEST NORTH DAKOTA

CITY           SKY/WX    TMP DP  RH WIND       PRES   REMARKS
BISMARCK       CLOUDY    87  76  69 E10       30.02S HX  97
DICKINSON      SUNNY     85  72  65 E18       30.00F HX  91
GARRISON         N/A     84  62  47 E15G21    30.03F
HETTINGER ARPT SUNNY     95  69  42 E13G24    30.00F HX 100
$$

NDZ004>008-012>016-024-026-027-054-222100-
NORTHEAST NORTH DAKOTA

CITY           SKY/WX    TMP DP  RH WIND       PRES   REMARKS
GRAND FORKS    MOSUNNY   87  62  43 NE7       30.03R
GRND FRKS AFB  MOSUNNY   85  63  47 NE6       30.05R
DEVILS LAKE    CLOUDY    81  60  48 E6        30.07R
$$

NDZ022-023-025-028>030-036>039-047>053-222100-
SOUTHEAST NORTH DAKOTA

CITY           SKY/WX    TMP DP  RH WIND       PRES   REMARKS
FARGO          CLOUDY    89  66  46 W6        30.02R HX  91
JAMESTOWN      CLOUDY    86  72  62 E8        30.02S HX  92
$$





USA.gov is the U.S. government's official web portal to all federal, state and local government web resources and services.